This is the latest recevied weather packets stored in our database for station/object SV1TGC. If no packets are shown the sender has not sent any weather packets the latest 10 day(s).
| Time | Temp. | Humidity | Pressure | Rain* | Wind** | Luminosity | Snow |
|---|---|---|---|---|---|---|---|
| 1777672855 | 12.22° C | 66% | 1019.2 hPa | 0 mm | - | - | - |
| 1777671332 | 12.22° C | 66% | 1019 hPa | 0 mm | - | - | - |
| 1777670432 | 12.22° C | 66% | 1019 hPa | 0 mm | - | - | - |
| 1777669837 | 12.22° C | 66% | 1018.9 hPa | 0 mm | - | - | - |
| 1777669247 | 12.22° C | 66% | 1018.9 hPa | 0 mm | - | - | - |
| 1777667732 | 12.22° C | 65% | 1018.9 hPa | 0 mm | - | - | - |
| 1777666833 | 12.22° C | 65% | 1018.9 hPa | 0 mm | - | - | - |
| 1777666233 | 12.22° C | 66% | 1018.8 hPa | 0 mm | - | - | - |
| 1777665332 | 12.22° C | 67% | 1018.8 hPa | 0 mm | - | - | - |
| 1777663849 | 12.22° C | 68% | 1018.8 hPa | 0 mm | - | - | - |
| 1777659934 | 12.22° C | 70% | 1018.5 hPa | 0 mm | - | - | - |
| 1777659349 | 11.67° C | 71% | 1018.5 hPa | 0 mm | - | - | - |
| 1777655433 | 12.22° C | 67% | 1018.4 hPa | 0 mm | - | - | - |
| 1777655135 | 12.22° C | 67% | 1018.4 hPa | 0 mm | - | - | - |
| 1777653336 | 12.22° C | 67% | 1017.9 hPa | 0 mm | - | - | - |
| 1777652732 | 12.22° C | 67% | 1017.9 hPa | 0 mm | - | - | - |
| 1777652146 | 12.22° C | 66% | 1018 hPa | 0 mm | - | - | - |
| 1777651533 | 12.78° C | 67% | 1017.8 hPa | 0 mm | - | - | - |
| 1777649453 | 12.78° C | 66% | 1017.9 hPa | 0 mm | - | - | - |
| 1777649133 | 12.78° C | 66% | 1017.9 hPa | 0 mm | - | - | - |
| 1777648551 | 12.78° C | 66% | 1018 hPa | 0 mm | - | - | - |
| 1777647939 | 12.78° C | 66% | 1018.2 hPa | 0 mm | - | - | - |
| 1777647033 | 12.78° C | 68% | 1018.3 hPa | 0 mm | - | - | - |
| 1777646432 | 12.78° C | 67% | 1018.1 hPa | 0 mm | - | - | - |
| 1777644054 | 13.33° C | 64% | 1018.2 hPa | 0 mm | - | - | - |
* Rain latest hour (hover to see other rain measurements)
** Current wind speed in m/s (hover to see current wind gust speed)